Regional Weather Roundup
Issued by NWS

Home | Current Version | Previous Version | Graphics & Text | Print | Product List | Glossary On
Versions: 1 2 3 4 5 6 7 8 9 10 11 12 13 14 15 16 17 18 19 20 21 22 23 24 25 26 27 28 29 30 31 32 33 34 35 36 37 38 39 40 41 42 43 44 45 46 47 48 49 50
000
ASUS43 KDTX 271801
RWRMI
MICHIGAN HOURLY REGIONAL WEATHER ROUNDUP
NATIONAL WEATHER SERVICE DETROIT/PONTIAC MI
100 PM EST THU NOV 27 2014

NOTE: "FAIR" INDICATES FEW OR NO CLOUDS BELOW 12,000 FEET WITH NO
SIGNIFICANT WEATHER AND/OR OBSTRUCTION TO VISIBILITY.

MIZ047>049-052>055-059>063-066>070-074>076-081>083-271900-
SOUTHEAST LOWER MICHIGAN

CITY           SKY/WX    TMP DP  RH WIND       PRES   REMARKS
ADRIAN         CLOUDY    32  24  72 W10       30.18F WCI  24
6HR MIN TEMP:  27; 6HR MAX TEMP:  32;

ALMA           CLOUDY    29  21  70 NW10G18   30.18S WCI  20
ANN ARBOR      CLOUDY    34  21  59 NW10      30.14F WCI  26
BAD AXE        LGT SNOW  28  26  91 NW20      30.12S WCI  15
6HR MIN TEMP:  28; 6HR MAX TEMP:  30;

CARO           CLOUDY    30  27  86 NW13      30.14S WCI  20
DETROIT CITY   CLOUDY    35  21  56 W10       30.14F WCI  27
6HR MIN TEMP:  28; 6HR MAX TEMP:  35;

DETROIT        PTSUNNY   34  22  61 W13       30.15F WCI  25
6HR MIN TEMP:  26; 6HR MAX TEMP:  35; 6HR PCP: TRACE;

FLINT          FLURRIES  32  24  72 NW12      30.15F WCI  23
6HR MIN TEMP:  29; 6HR MAX TEMP:  33; 6HR PCP: TRACE;

GROSSE ILE     PTSUNNY   34  25  69 W10       30.14F WCI  26
HILLSDALE      FLURRIES  32  26  80 SW9       30.15F WCI  24
6HR MIN TEMP:  27; 6HR MAX TEMP:  32;

HOWELL         CLOUDY    30  24  77 W9        30.14S WCI  22
6HR MIN TEMP:  28; 6HR MAX TEMP:  31;


CITY           SKY/WX    TMP DP  RH WIND       PRES   REMARKS
JACKSON        CLOUDY    30  24  78 W7        30.15F WCI  23
6HR MIN TEMP:  27; 6HR MAX TEMP:  31; 6HR PCP: TRACE;

LAMBERTVILLE   CLOUDY    34  27  75 W13       30.18S WCI  25
LANSING        CLOUDY    30  23  75 NW9       30.17F WCI  22
6HR MIN TEMP:  28; 6HR MAX TEMP:  31; 6HR PCP: TRACE;

LAPEER         CLOUDY    30  23  75 NW12      30.12F WCI  21
MASON          CLOUDY    31  25  77 W12       30.16S WCI  22
MONROE         CLOUDY    34  27  75 W12       30.15F WCI  25
MT. CLEMENS    CLOUDY    34  23  64 NW10      30.11F WCI  26
6HR MIN TEMP:  26; 6HR MAX TEMP:  34; 6HR PCP: TRACE;

PONTIAC        CLOUDY    30  20  66 NW12      30.12F WCI  20
6HR MIN TEMP:  26; 6HR MAX TEMP:  32;

PORT HOPE        N/A     30  25  81 NW14G24   30.09S WCI  19
6HR MIN TEMP:  30; 6HR MAX TEMP:  31; 6HR PCP:  0.08;

PORT HURON     CLOUDY    32  25  74 NW10G16   30.12S WCI  24
TRI CITIES     CLOUDY    30  21  69 NW15      30.17S WCI  19
6HR MIN TEMP:  29; 6HR MAX TEMP:  32; 6HR PCP: TRACE;

TROY           CLOUDY    35  22  59 W12       30.14F WCI  26
SAGINAW HB     CLOUDY    32  27  80 NW8       30.15F WCI  25
$$
MIZ043>046-050>051-056>058-064>065-071>073-077>080-271900-
SOUTHWEST LOWER MICHIGAN

CITY           SKY/WX    TMP DP  RH WIND       PRES   REMARKS
BATTLE CREEK   LGT SNOW  32  27  81 W10       30.16F WCI  24
6HR MIN TEMP:  26; 6HR MAX TEMP:  33; 6HR PCP: TRACE;

BENTON HARBOR  CLOUDY    30  24  78 NW14G22   30.25S WCI  19
6HR MIN TEMP:  27; 6HR MAX TEMP:  31; 6HR PCP: TRACE;

BIG RAPIDS     FLURRIES  26  21  81 N12G18    30.19S WCI  16
6HR MIN TEMP:  26; 6HR MAX TEMP:  28;

COLDWATER      CLOUDY    33  29  84 W13       30.17F WCI  24
6HR MIN TEMP:  26; 6HR MAX TEMP:  33;

FREMONT        LGT SNOW  26  22  86 N14       30.23R WCI  14
HOLLAND        LGT SNOW  30  26  85 NW6       30.23S VSB 1   WCI  24
6HR MIN TEMP:  29; 6HR MAX TEMP:  33; 6HR PCP:  0.09;

GRAND RAPIDS   CLOUDY    30  23  75 NW9       30.19F WCI  22
6HR MIN TEMP:  27; 6HR MAX TEMP:  30; 6HR PCP:  0.02;

IONIA          CLOUDY    31  24  74 N10       30.17S WCI  22
KALAMAZOO      LGT SNOW  32  28  85 NW13G21   30.18F FOG     WCI  22
6HR MIN TEMP:  27; 6HR MAX TEMP:  32; 6HR PCP:  0.01;

LUDINGTON      LGT SNOW  22  17  79 N10G21    30.29R WCI  11
6HR MIN TEMP:  22; 6HR MAX TEMP:  29;

MARSHALL       LGT SNOW  30  27  87 SW6       30.15F WCI  24
MOUNT PLEASANT CLOUDY    28  19  67 NW8       30.19R WCI  20
6HR MIN TEMP:  26; 6HR MAX TEMP:  29;

MUSKEGON       SNOW      27  21  78 NW17G24   30.25R VSB 1/2 WCI  14
6HR MIN TEMP:  27; 6HR MAX TEMP:  30; 6HR PCP:  0.06;

SOUTH HAVEN    LGT SNOW  32  27  80 NW18G26   30.24R WCI  20
$$
MIZ016>042-271900-
NORTHERN LOWER MICHIGAN

CITY           SKY/WX    TMP DP  RH WIND       PRES   REMARKS
ALPENA         MOSUNNY   23  15  71 NW14G24   30.16F WCI  11
6HR MIN TEMP:  23; 6HR MAX TEMP:  27; 6HR PCP:  0.04;

BEAVER ISLAND  CLOUDY    22  11  62 NW7G18    30.24S WCI  14
6HR MIN TEMP:  21; 6HR MAX TEMP:  24;

BELLAIRE       LGT SNOW  23  16  76 NW7       30.24S WCI  14
CADILLAC       FLURRIES  21  14  75 NW10G21   30.17S WCI  10
CHARLEVOIX     CLOUDY    21  13  69 NW13G20   30.26S WCI   9
6HR MIN TEMP:  21; 6HR MAX TEMP:  25;

FRANKFORT      FLURRIES  22  15  74 NW9       30.27S WCI  11
GAYLORD        CLOUDY    20  11  68 NW10G21   30.15F WCI   9
6HR MIN TEMP:  19; 6HR MAX TEMP:  24; 6HR PCP: TRACE;

GRAYLING       FLURRIES  21  15  78 NW12      30.17S WCI   9
6HR MIN TEMP:  21; 6HR MAX TEMP:  26;

HARBOR SPRINGS CLOUDY    23  11  61 W9G20     30.21S WCI  13
HOUGHTON LAKE  CLOUDY    23  15  71 NW13      30.16F WCI  11
6HR MIN TEMP:  23; 6HR MAX TEMP:  26; 6HR PCP: TRACE;

MANISTEE       CLOUDY    23  14  68 N9        30.27S WCI  13
OSCODA         CLOUDY    26  18  72 NW16G22   30.14S WCI  13
PELLSTON       CLOUDY    21  11  65 NW15      30.21F WCI   8
6HR MIN TEMP:  20; 6HR MAX TEMP:  23; 6HR PCP: TRACE;

ROGERS CITY    MOSUNNY   22  17  79 W9G17     30.18S WCI  12
TRAVERSE CITY  LGT SNOW  23  15  71 NW15      30.23S WCI  10
6HR MIN TEMP:  23; 6HR MAX TEMP:  28; 6HR PCP: TRACE;

$$
MIZ007>008-015-271900-
EASTERN UPPER MICHIGAN

CITY           SKY/WX    TMP DP  RH WIND       PRES   REMARKS
KINROSS        PTSUNNY   21  12  68 W17G24    30.16S WCI   7
6HR MIN TEMP:  18; 6HR MAX TEMP:  21;

MACKINAC ISLAN FLURRIES  21  10  63 NW13G20   30.20R WCI   8
6HR MIN TEMP:  20; 6HR MAX TEMP:  23;

NEWBERRY       CLOUDY    16  11  80 NW10      30.20F WCI   3
6HR MIN TEMP:  14; 6HR MAX TEMP:  19;

S. S. MARIE    LGT SNOW  18  10  71 NW16G28   30.15R WCI   3
6HR MIN TEMP:  18; 6HR MAX TEMP:  23; 6HR PCP: TRACE;

MUNISING         N/A     21  12  68 N15       30.28S WCI   8
6HR MIN TEMP:  20; 6HR MAX TEMP:  23;

$$
MIZ004>006-011>014-085-271900-
CENTRAL UPPER MICHIGAN

CITY           SKY/WX    TMP DP  RH WIND       PRES   REMARKS
MANISTIQUE     MOSUNNY   19  11  72 NW14G28   30.25S WCI   5
6HR MIN TEMP:  15; 6HR MAX TEMP:  19;

ESCANABA       SUNNY     16   1  53 NW12G20   30.30S WCI   3
6HR MIN TEMP:  10; 6HR MAX TEMP:  16;

MENOMINEE      SUNNY     16   1  53 NW9G16    30.32S WCI   4
6HR MIN TEMP:  12; 6HR MAX TEMP:  16;

SAWYER-GWINN   MOSUNNY   12   1  62 NW17G23   30.27S WCI  -5
$$
MIZ001>003-009>011-084-271900-
WESTERN UPPER MICHIGAN

CITY           SKY/WX    TMP DP  RH WIND       PRES   REMARKS
IRON MOUNTAIN  MOSUNNY   13   0  56 NW18      30.29F WCI  -4
6HR MIN TEMP:   4; 6HR MAX TEMP:  13;

HOUGHTON       LGT SNOW  10   1  67 N10       30.31F WCI  -4
6HR MIN TEMP:   6; 6HR MAX TEMP:  11; 6HR PCP: TRACE;

COPPER HARBOR    N/A     15   8  73 N21       30.33F WCI  -2
6HR MIN TEMP:  13; 6HR MAX TEMP:  15;

IRONWOOD       CLOUDY    10   7  85 NW13      30.33S WCI  -5
6HR MIN TEMP:   9; 6HR MAX TEMP:  10;

$$

ABBREVIATIONS USED IN REMARKS
   TC - TEMPERATURE IN CELSIUS
  WCI - WIND CHILL INDEX
   HX - HEAT INDEX
  VSB - VISIBILITY



USA.gov is the U.S. government's official web portal to all federal, state and local government web resources and services.